DLH1318 EDDF-DAAG

Flight info

Callsign DLH1318
Flight time 2h 6m
Altitude 37000
Route ANEKI2L/18 ANEKI Y163 HERBI Y164 MOPAN DCT LUTIX DCT BENOT DCT NEMOS DCT GEVEA DCT INCUS DCT BALSI DCT RETNO/N0458F390 DCT TUPOX DCT MTG DCT DIVKO DCT VATIR DCT PIVUS DCT BODEQ DCT VERSO DCT NELAS DCT CDP DCT RUFRU DCT GENIO DCT BUYAH UA27 ALR
Aircraft A320/M-SDE2E3FGIJ1LORWXYZ/HB1

Departure

Time 2026-05-06 19:38
Airport Frankfurt Main Airport (EDDF)

Arrival

Time 2026-05-06 21:45
Airport Houari Boumediene Airport (DAAG)
Time Latitude Longitude Altitude Speed Heading
2026-05-06 19:21 50.03845 8.54693 352 ft 0 kts 160°
2026-05-06 19:32 50.03840 8.54696 351 ft 5 kts 160°
2026-05-06 19:32 50.03763 8.54718 356 ft 15 kts 210°
2026-05-06 19:32 50.03713 8.54546 353 ft 20 kts 249°
2026-05-06 19:33 50.03657 8.54313 342 ft 25 kts 249°
2026-05-06 19:33 50.03593 8.54044 343 ft 28 kts 250°
2026-05-06 19:33 50.03521 8.53743 338 ft 31 kts 250°
2026-05-06 19:33 50.03465 8.53508 339 ft 13 kts 250°
2026-05-06 19:34 50.03428 8.53352 337 ft 17 kts 250°
2026-05-06 19:34 50.03380 8.53152 335 ft 22 kts 249°
2026-05-06 19:34 50.03325 8.52924 334 ft 19 kts 250°
2026-05-06 19:34 50.03292 8.52787 331 ft 8 kts 250°
2026-05-06 19:35 50.03281 8.52741 334 ft 0 kts 249°
2026-05-06 19:37 50.03281 8.52739 332 ft 2 kts 249°
2026-05-06 19:37 50.03266 8.52659 333 ft 10 kts 266°
2026-05-06 19:37 50.03221 8.52591 332 ft 13 kts 179°
2026-05-06 19:37 50.03101 8.52595 332 ft 30 kts 180°
2026-05-06 19:38 50.02567 8.52601 331 ft 116 kts 180°
2026-05-06 19:38 50.01551 8.52605 385 ft 169 kts 180°
2026-05-06 19:38 50.00372 8.52623 1111 ft 169 kts 179°
2026-05-06 19:38 49.99191 8.52693 1869 ft 173 kts 178°
2026-05-06 19:39 49.97935 8.52779 2298 ft 194 kts 179°
2026-05-06 19:39 49.96510 8.52878 2663 ft 217 kts 179°
2026-05-06 19:39 49.94929 8.52988 3245 ft 233 kts 179°
2026-05-06 19:39 49.93285 8.53106 3812 ft 238 kts 179°
2026-05-06 19:40 49.91636 8.53221 3963 ft 237 kts 179°
2026-05-06 19:40 49.89984 8.53335 3998 ft 237 kts 179°
2026-05-06 19:40 49.88325 8.53449 4219 ft 243 kts 179°
2026-05-06 19:40 49.86644 8.53566 5284 ft 241 kts 179°
2026-05-06 19:41 49.84964 8.53683 6290 ft 242 kts 179°
2026-05-06 19:41 49.83275 8.53797 7235 ft 245 kts 179°
2026-05-06 19:41 49.81552 8.53913 8161 ft 249 kts 179°
2026-05-06 19:41 49.79810 8.54032 9082 ft 252 kts 179°
2026-05-06 19:42 49.78042 8.54122 9984 ft 255 kts 184°
2026-05-06 19:42 49.76195 8.53895 10498 ft 277 kts 186°
2026-05-06 19:42 49.74277 8.53636 10863 ft 301 kts 186°
2026-05-06 19:42 49.72107 8.53342 11202 ft 325 kts 186°
2026-05-06 19:43 49.69766 8.53027 11509 ft 348 kts 186°
2026-05-06 19:43 49.67309 8.52703 12123 ft 358 kts 185°
2026-05-06 19:43 49.64802 8.52376 12905 ft 363 kts 185°
2026-05-06 19:43 49.62277 8.52044 13697 ft 367 kts 185°
2026-05-06 19:44 49.59758 8.51621 14450 ft 370 kts 189°
2026-05-06 19:44 49.57192 8.51000 15197 ft 374 kts 190°
2026-05-06 19:44 49.54623 8.50297 15900 ft 377 kts 192°
2026-05-06 19:44 49.52089 8.49208 16581 ft 381 kts 198°
2026-05-06 19:45 49.49549 8.47964 17260 ft 384 kts 198°
2026-05-06 19:45 49.46997 8.46689 17907 ft 387 kts 198°
2026-05-06 19:45 49.44427 8.45398 18534 ft 391 kts 198°
2026-05-06 19:45 49.41829 8.44093 19155 ft 394 kts 198°
2026-05-06 19:46 49.39212 8.42780 19769 ft 397 kts 198°
2026-05-06 19:46 49.36580 8.41463 20360 ft 400 kts 198°
2026-05-06 19:46 49.33928 8.40140 20939 ft 402 kts 198°
2026-05-06 19:46 49.31251 8.38809 21489 ft 405 kts 198°
2026-05-06 19:47 49.28554 8.37475 22027 ft 408 kts 198°
2026-05-06 19:47 49.25842 8.36142 22549 ft 411 kts 198°
2026-05-06 19:47 49.23115 8.34803 23059 ft 414 kts 198°
2026-05-06 19:47 49.20367 8.33449 23552 ft 417 kts 198°
2026-05-06 19:48 49.17593 8.32080 24036 ft 419 kts 198°
2026-05-06 19:48 49.14806 8.30710 24511 ft 422 kts 198°
2026-05-06 19:48 49.12004 8.29333 24981 ft 424 kts 198°
2026-05-06 19:48 49.09186 8.27951 25447 ft 426 kts 198°
2026-05-06 19:49 49.06356 8.26559 25898 ft 428 kts 198°
2026-05-06 19:49 49.03511 8.25162 26352 ft 430 kts 198°
2026-05-06 19:49 49.00656 8.23766 26777 ft 432 kts 198°
2026-05-06 19:49 48.97789 8.22364 27177 ft 434 kts 198°
2026-05-06 19:50 48.94909 8.20956 27567 ft 435 kts 198°
2026-05-06 19:50 48.92025 8.19548 27951 ft 437 kts 198°
2026-05-06 19:50 48.89123 8.18135 28328 ft 438 kts 198°
2026-05-06 19:50 48.86211 8.16725 28701 ft 440 kts 198°
2026-05-06 19:51 48.83328 8.15330 29035 ft 442 kts 198°
2026-05-06 19:51 48.80358 8.13894 29391 ft 443 kts 198°
2026-05-06 19:51 48.77431 8.12472 29852 ft 441 kts 198°
2026-05-06 19:51 48.74555 8.11075 30334 ft 439 kts 198°
2026-05-06 19:52 48.71657 8.09674 30784 ft 437 kts 198°
2026-05-06 19:52 48.68758 8.08278 31214 ft 436 kts 198°
2026-05-06 19:52 48.65866 8.06886 31622 ft 435 kts 198°
2026-05-06 19:52 48.62987 8.05502 32017 ft 435 kts 198°
2026-05-06 19:53 48.60099 8.04115 32408 ft 434 kts 198°
2026-05-06 19:53 48.57215 8.02729 32791 ft 434 kts 198°
2026-05-06 19:53 48.54347 8.01349 33178 ft 433 kts 198°
2026-05-06 19:53 48.51476 7.99967 33556 ft 433 kts 198°
2026-05-06 19:54 48.48606 7.98585 33924 ft 432 kts 198°
2026-05-06 19:54 48.45741 7.97212 34273 ft 432 kts 198°
2026-05-06 19:54 48.42870 7.95843 34621 ft 432 kts 198°
2026-05-06 19:54 48.40007 7.94484 34940 ft 433 kts 198°
2026-05-06 19:55 48.37121 7.93119 35284 ft 434 kts 198°
2026-05-06 19:55 48.34238 7.91752 35582 ft 434 kts 198°
2026-05-06 19:55 48.31344 7.90374 35882 ft 435 kts 198°
2026-05-06 19:55 48.28461 7.89001 36166 ft 435 kts 198°
2026-05-06 19:56 48.25573 7.87629 36432 ft 436 kts 198°
2026-05-06 19:56 48.22678 7.86253 36697 ft 437 kts 198°
2026-05-06 19:56 48.19811 7.84891 36920 ft 437 kts 198°
2026-05-06 19:56 48.16925 7.83525 37315 ft 433 kts 198°
2026-05-06 19:57 48.14051 7.82170 37627 ft 432 kts 198°
2026-05-06 19:57 48.11180 7.80818 37857 ft 433 kts 198°
2026-05-06 19:57 48.08299 7.79465 38065 ft 434 kts 198°
2026-05-06 19:57 48.05421 7.78114 38267 ft 435 kts 198°
2026-05-06 19:58 48.02530 7.76756 38476 ft 436 kts 198°
2026-05-06 19:58 47.99639 7.75402 38674 ft 436 kts 198°
2026-05-06 19:58 47.96737 7.74042 38858 ft 437 kts 198°
2026-05-06 19:58 47.93822 7.72676 38927 ft 438 kts 198°
2026-05-06 19:59 47.88002 7.69946 38930 ft 438 kts 198°
2026-05-06 19:59 47.82180 7.67226 38930 ft 438 kts 198°
2026-05-06 20:00 47.76384 7.64534 38942 ft 438 kts 198°
2026-05-06 20:00 47.70562 7.61830 38945 ft 439 kts 198°
2026-05-06 20:01 47.64691 7.59121 38946 ft 439 kts 198°
2026-05-06 20:01 47.58901 7.56461 38949 ft 439 kts 198°
2026-05-06 20:02 47.53071 7.53774 38954 ft 439 kts 198°
2026-05-06 20:02 47.47225 7.51075 38956 ft 439 kts 198°
2026-05-06 20:03 47.42375 7.48850 38959 ft 439 kts 198°
2026-05-06 20:03 47.36527 7.46181 38961 ft 439 kts 198°
2026-05-06 20:04 47.30693 7.43515 38961 ft 439 kts 198°
2026-05-06 20:04 47.24857 7.40855 38965 ft 439 kts 198°
2026-05-06 20:05 47.19012 7.38190 38966 ft 439 kts 198°
2026-05-06 20:05 47.13507 7.34461 38965 ft 437 kts 211°
2026-05-06 20:06 47.08267 7.29927 38965 ft 437 kts 211°
2026-05-06 20:06 47.03050 7.25443 38966 ft 437 kts 211°
2026-05-06 20:07 46.97809 7.20936 38967 ft 437 kts 211°
2026-05-06 20:07 46.92563 7.16429 38967 ft 436 kts 211°
2026-05-06 20:08 46.87324 7.11943 38966 ft 436 kts 211°
2026-05-06 20:08 46.82091 7.07482 38969 ft 435 kts 211°
2026-05-06 20:09 46.76864 7.03028 38968 ft 435 kts 211°
2026-05-06 20:09 46.71636 6.98583 38972 ft 435 kts 211°
2026-05-06 20:10 46.66442 6.94174 38971 ft 434 kts 211°
2026-05-06 20:10 46.61215 6.89744 38970 ft 434 kts 211°
2026-05-06 20:11 46.55992 6.85330 38969 ft 434 kts 211°
2026-05-06 20:11 46.50763 6.80918 38968 ft 434 kts 211°
2026-05-06 20:12 46.45536 6.76529 38970 ft 433 kts 211°
2026-05-06 20:12 46.40349 6.72194 38971 ft 433 kts 211°
2026-05-06 20:13 46.35125 6.67815 38971 ft 433 kts 211°
2026-05-06 20:13 46.29901 6.63443 38976 ft 433 kts 211°
2026-05-06 20:14 46.24676 6.59089 38977 ft 433 kts 211°
2026-05-06 20:14 46.19465 6.54754 38977 ft 433 kts 210°
2026-05-06 20:15 46.14241 6.50433 38982 ft 433 kts 210°
2026-05-06 20:15 46.09013 6.46110 38981 ft 433 kts 211°
2026-05-06 20:16 46.03795 6.41795 38979 ft 433 kts 211°
2026-05-06 20:16 45.98564 6.37486 38980 ft 433 kts 210°
2026-05-06 20:17 45.93337 6.33185 38984 ft 433 kts 211°
2026-05-06 20:17 45.88147 6.28913 38984 ft 432 kts 210°
2026-05-06 20:18 45.82915 6.24631 38985 ft 433 kts 210°
2026-05-06 20:18 45.77686 6.20367 38980 ft 432 kts 210°
2026-05-06 20:19 45.72462 6.16112 38983 ft 432 kts 210°
2026-05-06 20:19 45.67222 6.11852 38981 ft 432 kts 210°
2026-05-06 20:20 45.61991 6.07597 38984 ft 432 kts 210°
2026-05-06 20:20 45.56766 6.03358 38985 ft 432 kts 210°
2026-05-06 20:21 45.51558 5.99158 38983 ft 432 kts 210°
2026-05-06 20:21 45.46234 5.95187 38981 ft 433 kts 203°
2026-05-06 20:22 45.40670 5.91906 38976 ft 433 kts 204°
2026-05-06 20:22 45.35099 5.88617 38979 ft 433 kts 204°
2026-05-06 20:23 45.29524 5.85325 38970 ft 434 kts 204°
2026-05-06 20:23 45.23948 5.82039 38972 ft 434 kts 204°
2026-05-06 20:24 45.18376 5.78764 38972 ft 434 kts 204°
2026-05-06 20:24 45.12803 5.75489 38972 ft 433 kts 204°
2026-05-06 20:25 45.07227 5.72239 38969 ft 433 kts 204°
2026-05-06 20:25 45.01644 5.68990 38970 ft 433 kts 204°
2026-05-06 20:26 44.96075 5.65740 38966 ft 433 kts 204°
2026-05-06 20:26 44.90505 5.62500 38963 ft 433 kts 204°
2026-05-06 20:27 44.84961 5.59287 38966 ft 433 kts 204°
2026-05-06 20:27 44.79381 5.56057 38966 ft 433 kts 204°
2026-05-06 20:28 44.73802 5.52832 38957 ft 432 kts 204°
2026-05-06 20:28 44.68233 5.49612 38949 ft 433 kts 204°
2026-05-06 20:29 44.62690 5.46431 38944 ft 433 kts 204°
2026-05-06 20:29 44.57073 5.43224 38945 ft 433 kts 203°
2026-05-06 20:30 44.48742 5.38465 38946 ft 433 kts 204°
2026-05-06 20:31 44.43154 5.35272 38942 ft 433 kts 204°
2026-05-06 20:31 44.37575 5.32086 38946 ft 433 kts 204°
2026-05-06 20:32 44.32004 5.28923 38946 ft 433 kts 203°
2026-05-06 20:32 44.26411 5.25758 38949 ft 433 kts 204°
2026-05-06 20:33 44.20867 5.22616 38949 ft 433 kts 204°
2026-05-06 20:33 44.15284 5.19456 38952 ft 433 kts 204°
2026-05-06 20:34 44.09695 5.16308 38957 ft 433 kts 203°
2026-05-06 20:34 44.04101 5.13164 38964 ft 433 kts 203°
2026-05-06 20:35 43.98543 5.10044 38972 ft 434 kts 203°
2026-05-06 20:35 43.92943 5.06909 38984 ft 433 kts 204°
2026-05-06 20:36 43.87358 5.03781 38987 ft 433 kts 204°
2026-05-06 20:36 43.81770 5.00663 38987 ft 432 kts 204°
2026-05-06 20:37 43.76181 4.97556 38991 ft 432 kts 204°
2026-05-06 20:37 43.70606 4.94455 38988 ft 432 kts 204°
2026-05-06 20:38 43.65030 4.91362 38984 ft 432 kts 204°
2026-05-06 20:38 43.59490 4.88296 38983 ft 432 kts 204°
2026-05-06 20:39 43.53908 4.85212 38987 ft 432 kts 204°
2026-05-06 20:39 43.48320 4.82133 38984 ft 432 kts 204°
2026-05-06 20:40 43.42741 4.79059 38984 ft 432 kts 204°
2026-05-06 20:40 43.37163 4.75998 38986 ft 431 kts 203°
2026-05-06 20:41 43.31588 4.72941 38982 ft 431 kts 203°
2026-05-06 20:41 43.26010 4.69896 38989 ft 431 kts 203°
2026-05-06 20:42 43.20429 4.66853 38985 ft 431 kts 204°
2026-05-06 20:42 43.14869 4.63817 38985 ft 431 kts 204°
2026-05-06 20:43 43.09299 4.60781 38989 ft 431 kts 204°
2026-05-06 20:43 43.03736 4.57758 38986 ft 431 kts 203°
2026-05-06 20:44 42.98164 4.54742 38988 ft 431 kts 203°
2026-05-06 20:44 42.92617 4.51753 38987 ft 431 kts 203°
2026-05-06 20:45 42.87040 4.48745 38999 ft 431 kts 204°
2026-05-06 20:45 42.81471 4.45741 38998 ft 431 kts 204°
2026-05-06 20:46 42.75895 4.42749 39016 ft 431 kts 204°
2026-05-06 20:46 42.70313 4.39754 39009 ft 430 kts 204°
2026-05-06 20:47 42.64741 4.36774 39013 ft 430 kts 203°
2026-05-06 20:47 42.59209 4.33822 39012 ft 429 kts 204°
2026-05-06 20:48 42.53650 4.30851 39009 ft 429 kts 204°
2026-05-06 20:48 42.48091 4.27881 39009 ft 429 kts 204°
2026-05-06 20:49 42.42526 4.24920 39017 ft 429 kts 204°
2026-05-06 20:49 42.36958 4.21972 39006 ft 429 kts 204°
2026-05-06 20:50 42.31386 4.19028 39019 ft 429 kts 204°
2026-05-06 20:50 42.25822 4.16087 39022 ft 430 kts 204°
2026-05-06 20:51 42.20251 4.13158 39024 ft 430 kts 204°
2026-05-06 20:51 42.15477 4.11267 39028 ft 432 kts 193°
2026-05-06 20:52 42.08610 4.09515 39028 ft 433 kts 193°
2026-05-06 20:52 42.03650 4.08264 39028 ft 433 kts 193°
2026-05-06 20:53 41.97731 4.06779 39032 ft 433 kts 193°
2026-05-06 20:53 41.91806 4.05291 39030 ft 433 kts 193°
2026-05-06 20:54 41.85885 4.03808 39027 ft 433 kts 193°
2026-05-06 20:54 41.79993 4.02333 39028 ft 433 kts 193°
2026-05-06 20:55 41.74073 4.00858 39029 ft 433 kts 193°
2026-05-06 20:55 41.68155 3.99387 39027 ft 433 kts 193°
2026-05-06 20:56 41.62237 3.97905 39028 ft 433 kts 193°
2026-05-06 20:56 41.56306 3.96428 39027 ft 432 kts 193°
2026-05-06 20:57 41.50387 3.94969 39013 ft 432 kts 193°
2026-05-06 20:57 41.44470 3.93511 39026 ft 432 kts 193°
2026-05-06 20:58 41.38553 3.92048 39027 ft 433 kts 193°
2026-05-06 20:58 41.32674 3.90592 39028 ft 433 kts 193°
2026-05-06 20:59 41.26749 3.89123 39029 ft 432 kts 193°
2026-05-06 20:59 41.20835 3.87669 39028 ft 432 kts 193°
2026-05-06 21:00 41.14914 3.86223 39028 ft 432 kts 193°
2026-05-06 21:00 41.09000 3.84782 39018 ft 432 kts 193°
2026-05-06 21:01 41.03082 3.83336 39028 ft 432 kts 193°
2026-05-06 21:01 40.97167 3.81885 39020 ft 432 kts 193°
2026-05-06 21:02 40.91247 3.80443 39027 ft 433 kts 193°
2026-05-06 21:02 40.85312 3.79001 39027 ft 433 kts 193°
2026-05-06 21:03 40.79433 3.77584 39014 ft 432 kts 193°
2026-05-06 21:03 40.73511 3.76154 39019 ft 432 kts 193°
2026-05-06 21:04 40.67594 3.74729 39023 ft 432 kts 193°
2026-05-06 21:04 40.61679 3.73301 39024 ft 432 kts 193°
2026-05-06 21:05 40.55753 3.71868 39005 ft 432 kts 193°
2026-05-06 21:05 40.49841 3.70452 39026 ft 432 kts 193°
2026-05-06 21:06 40.43923 3.69031 39027 ft 432 kts 193°
2026-05-06 21:06 40.38001 3.67607 39027 ft 432 kts 193°
2026-05-06 21:07 40.32124 3.66207 39019 ft 432 kts 193°
2026-05-06 21:07 40.26212 3.64804 39012 ft 432 kts 193°
2026-05-06 21:08 40.20303 3.63401 39010 ft 431 kts 193°
2026-05-06 21:08 40.14403 3.61990 39018 ft 431 kts 193°
2026-05-06 21:09 40.08490 3.60584 39008 ft 431 kts 193°
2026-05-06 21:09 40.02587 3.59188 39003 ft 431 kts 193°
2026-05-06 21:10 39.96691 3.57790 39001 ft 430 kts 194°
2026-05-06 21:10 39.90793 3.56393 39006 ft 430 kts 193°
2026-05-06 21:11 39.84887 3.55010 39006 ft 430 kts 193°
2026-05-06 21:11 39.79002 3.53626 39006 ft 430 kts 194°
2026-05-06 21:12 39.73143 3.52240 39004 ft 430 kts 194°
2026-05-06 21:12 39.67255 3.50856 39013 ft 429 kts 193°
2026-05-06 21:13 39.61369 3.49485 39001 ft 430 kts 193°
2026-05-06 21:13 39.55483 3.48117 39009 ft 430 kts 194°
2026-05-06 21:14 39.49583 3.46735 38992 ft 430 kts 194°
2026-05-06 21:14 39.43691 3.45353 38997 ft 431 kts 194°
2026-05-06 21:15 39.37779 3.43985 39000 ft 432 kts 194°
2026-05-06 21:15 39.31862 3.42619 39003 ft 431 kts 194°
2026-05-06 21:16 39.25961 3.41257 39018 ft 431 kts 194°
2026-05-06 21:16 39.20062 3.39889 39011 ft 430 kts 194°
2026-05-06 21:17 39.14167 3.38521 39014 ft 430 kts 194°
2026-05-06 21:17 39.08293 3.37157 39003 ft 429 kts 194°
2026-05-06 21:18 39.02437 3.35811 39015 ft 429 kts 194°
2026-05-06 21:18 38.96551 3.34460 39019 ft 429 kts 194°
2026-05-06 21:19 38.90668 3.33112 39013 ft 429 kts 194°
2026-05-06 21:19 38.84796 3.31773 39011 ft 429 kts 194°
2026-05-06 21:20 38.78915 3.30436 39009 ft 428 kts 194°
2026-05-06 21:20 38.73083 3.29105 39006 ft 428 kts 194°
2026-05-06 21:21 38.67217 3.27761 39005 ft 428 kts 194°
2026-05-06 21:21 38.61352 3.26426 38995 ft 428 kts 194°
2026-05-06 21:22 38.55495 3.25099 39003 ft 427 kts 194°
2026-05-06 21:22 38.49641 3.23773 39003 ft 427 kts 194°
2026-05-06 21:23 38.43786 3.22450 38998 ft 427 kts 194°
2026-05-06 21:23 38.37941 3.21135 38999 ft 427 kts 194°
2026-05-06 21:24 38.32076 3.19814 38994 ft 427 kts 194°
2026-05-06 21:24 38.26256 3.18500 38863 ft 428 kts 194°
2026-05-06 21:24 38.23282 3.17834 38608 ft 427 kts 194°
2026-05-06 21:25 38.20407 3.17193 38360 ft 426 kts 194°
2026-05-06 21:25 38.17475 3.16539 38109 ft 426 kts 194°
2026-05-06 21:25 38.14558 3.15892 37862 ft 427 kts 192°
2026-05-06 21:25 38.11572 3.15634 37609 ft 432 kts 182°
2026-05-06 21:26 38.08575 3.16042 37360 ft 438 kts 173°
2026-05-06 21:26 38.05595 3.16980 37110 ft 440 kts 170°
2026-05-06 21:26 38.02626 3.17952 36860 ft 441 kts 170°
2026-05-06 21:26 37.99654 3.18917 36615 ft 441 kts 170°
2026-05-06 21:27 37.96679 3.19880 36109 ft 442 kts 171°
2026-05-06 21:27 37.93677 3.20848 35148 ft 449 kts 171°
2026-05-06 21:27 37.90619 3.21827 34190 ft 455 kts 170°
2026-05-06 21:27 37.87530 3.22814 33138 ft 462 kts 170°
2026-05-06 21:28 37.84384 3.23821 32013 ft 470 kts 169°
2026-05-06 21:28 37.81206 3.24841 31024 ft 472 kts 169°
2026-05-06 21:28 37.78012 3.25868 30056 ft 474 kts 169°
2026-05-06 21:28 37.74818 3.26895 29046 ft 475 kts 169°
2026-05-06 21:29 37.71602 3.27931 27957 ft 477 kts 168°
2026-05-06 21:29 37.68372 3.28971 26791 ft 480 kts 168°
2026-05-06 21:29 37.65174 3.29998 25831 ft 478 kts 168°
2026-05-06 21:29 37.61953 3.31030 24783 ft 476 kts 168°
2026-05-06 21:30 37.58751 3.32059 23822 ft 474 kts 168°
2026-05-06 21:30 37.55574 3.33075 22963 ft 468 kts 168°
2026-05-06 21:30 37.52448 3.34068 22094 ft 462 kts 168°
2026-05-06 21:30 37.49351 3.35056 21272 ft 456 kts 168°
2026-05-06 21:31 37.46293 3.36033 20453 ft 451 kts 168°
2026-05-06 21:31 37.43262 3.36997 19648 ft 446 kts 168°
2026-05-06 21:31 37.40259 3.37950 18862 ft 440 kts 168°
2026-05-06 21:31 37.37309 3.38882 18087 ft 436 kts 168°
2026-05-06 21:32 37.34384 3.39807 17327 ft 431 kts 168°
2026-05-06 21:32 37.28661 3.41619 15846 ft 422 kts 168°
2026-05-06 21:32 37.25835 3.42515 15105 ft 418 kts 168°
2026-05-06 21:33 37.23026 3.43402 14374 ft 413 kts 168°
2026-05-06 21:33 37.20251 3.44277 13638 ft 409 kts 167°
2026-05-06 21:33 37.17494 3.45147 12900 ft 405 kts 167°
2026-05-06 21:33 37.14775 3.46007 12153 ft 401 kts 167°
2026-05-06 21:34 37.12088 3.46856 11494 ft 395 kts 167°
2026-05-06 21:34 37.09513 3.47669 11261 ft 365 kts 167°
2026-05-06 21:34 37.07156 3.48416 11042 ft 334 kts 167°
2026-05-06 21:34 37.04995 3.49101 10864 ft 308 kts 167°
2026-05-06 21:35 37.02961 3.49744 10364 ft 297 kts 167°
2026-05-06 21:35 37.00981 3.50366 10010 ft 292 kts 167°
2026-05-06 21:35 36.99036 3.50973 9854 ft 291 kts 167°
2026-05-06 21:35 36.97713 3.51386 9770 ft 291 kts 167°
2026-05-06 21:36 36.95106 3.52201 9603 ft 291 kts 167°
2026-05-06 21:36 36.93789 3.52612 9514 ft 290 kts 167°
2026-05-06 21:36 36.91176 3.53426 8936 ft 294 kts 167°
2026-05-06 21:36 36.89204 3.54044 8509 ft 291 kts 166°
2026-05-06 21:37 36.87231 3.54662 8085 ft 290 kts 166°
2026-05-06 21:37 36.85283 3.55272 7668 ft 287 kts 166°
2026-05-06 21:37 36.83978 3.55680 7377 ft 286 kts 166°
2026-05-06 21:37 36.81424 3.56281 6586 ft 280 kts 180°
2026-05-06 21:38 36.80152 3.56109 6124 ft 277 kts 193°
2026-05-06 21:38 36.78371 3.55129 5550 ft 281 kts 215°
2026-05-06 21:38 36.76972 3.53491 5106 ft 273 kts 228°
2026-05-06 21:38 36.75719 3.51720 4616 ft 267 kts 228°
2026-05-06 21:39 36.74542 3.50052 4454 ft 246 kts 228°
2026-05-06 21:39 36.73433 3.48484 4028 ft 239 kts 228°
2026-05-06 21:39 36.72340 3.46940 3527 ft 237 kts 228°
2026-05-06 21:39 36.71256 3.45406 3306 ft 232 kts 229°
2026-05-06 21:40 36.70215 3.43929 3179 ft 223 kts 229°
2026-05-06 21:40 36.69242 3.42463 3025 ft 216 kts 238°
2026-05-06 21:40 36.68699 3.40744 2792 ft 213 kts 261°
2026-05-06 21:40 36.68669 3.38916 2600 ft 209 kts 272°
2026-05-06 21:41 36.68714 3.37169 2524 ft 194 kts 272°
2026-05-06 21:41 36.68755 3.35559 2323 ft 179 kts 272°
2026-05-06 21:41 36.68791 3.34097 2126 ft 164 kts 272°
2026-05-06 21:41 36.68824 3.32760 1921 ft 147 kts 272°
2026-05-06 21:42 36.68855 3.31517 1727 ft 141 kts 272°
2026-05-06 21:42 36.68885 3.30310 1543 ft 138 kts 272°
2026-05-06 21:42 36.68915 3.29118 1359 ft 137 kts 272°
2026-05-06 21:42 36.68948 3.27941 1183 ft 136 kts 273°
2026-05-06 21:43 36.68983 3.26764 1001 ft 136 kts 272°
2026-05-06 21:43 36.68997 3.25593 819 ft 135 kts 271°
2026-05-06 21:43 36.69030 3.24426 635 ft 134 kts 272°
2026-05-06 21:43 36.69065 3.23267 474 ft 134 kts 271°
2026-05-06 21:44 36.69087 3.22110 302 ft 134 kts 271°
2026-05-06 21:44 36.69113 3.20954 108 ft 133 kts 272°
2026-05-06 21:44 36.69139 3.19901 73 ft 103 kts 272°
2026-05-06 21:44 36.69157 3.19228 76 ft 53 kts 272°
2026-05-06 21:45 36.69165 3.18888 79 ft 36 kts 271°
2026-05-06 21:45 36.69172 3.18573 79 ft 32 kts 271°
2026-05-06 21:45 36.69199 3.18433 72 ft 14 kts 341°
2026-05-06 21:45 36.69321 3.18433 64 ft 20 kts 24°
2026-05-06 21:46 36.69339 3.18509 66 ft 10 kts 91°
2026-05-06 21:46 36.69336 3.18636 67 ft 18 kts 92°
2026-05-06 21:46 36.69332 3.18819 71 ft 24 kts 91°
2026-05-06 21:46 36.69327 3.19049 71 ft 29 kts 91°
2026-05-06 21:47 36.69320 3.19321 68 ft 34 kts 92°
2026-05-06 21:47 36.69313 3.19615 70 ft 32 kts 92°
2026-05-06 21:47 36.69307 3.19864 70 ft 26 kts 93°
2026-05-06 21:47 36.69302 3.20107 71 ft 30 kts 91°
2026-05-06 21:48 36.69320 3.20278 63 ft 18 kts 33°
2026-05-06 21:48 36.69445 3.20311 66 ft 16 kts 49°
2026-05-06 21:48 36.69541 3.20366 70 ft 16 kts
2026-05-06 21:48 36.69633 3.20361 67 ft 6 kts 311°
2026-05-06 21:49 36.69637 3.20288 70 ft 6 kts 270°
2026-05-06 21:49 36.69637 3.20278 70 ft 0 kts 271°